EHI
17 16 15 14 12 10 8 5 2 2 2 3 4 4 3 3 2 2 1 0 0 0 0 0 0 0 0 0 0 0 0 0 0 0 0 0 0 0 0 0 0 0 0
13 13 13 12 10 8 6 3 1 1 1 2 3 3 2 2 1 1 0 0 0 0 0 0 0 0 0 0 0 0 0 0 0 0 0 0 0 0 0 0 0 0 0
9 9 9 8 7 6 4 1 0 0 0 1 2 1 1 1 0 0 0 0 0 0 0 0 0 0 0 0 0 0 0 0 0 0 0 0 0 0 0 0 0 0 0
6 5 4 5 5 4 2 0 0 0 0 1 1 0 0 0 0 0 0 0 0 0 0 0 0 0 0 0 0 0 0 0 0 0 0 0 0 0 0 0 0 0 0
2 1 1 2 2 2 1 0 1 1 1 1 0 0 0 0 0 0 0 0 0 0 0 0 0 0 0 0 0 0 0 0 0 0 0 0 0 0 0 0 0 0 0
1 0 0 0 0 0 0 1 2 2 2 2 1 0 0 0 0 0 0 0 0 0 0 0 0 0 0 0 0 0 0 0 0 0 0 0 0 0 0 0 0 0 0
0 0 0 0 0 1 1 2 3 3 3 3 2 1 0 0 0 0 0 0 0 0 0 0 0 0 0 0 0 0 0 0 0 0 0 0 0 0 0 0 0 0 0
0 0 0 0 0 1 3 4 4 4 4 4 2 1 0 0 0 0 0 0 0 0 0 0 0 0 0 0 0 0 0 0 0 0 0 0 0 0 0 0 0 0 0
0 0 0 0 1 2 3 5 5 5 5 4 2 0 0 0 0 0 0 0 0 0 0 0 0 0 0 0 0 0 0 0 0 0 0 0 0 0 0 0 0 0 0
0 0 0 1 2 3 4 6 6 5 4 3 1 0 1 1 0 0 0 0 0 0 0 0 0 0 0 0 0 0 0 0 0 0 0 0 0 0 0 0 0 0 0
0 0 0 2 3 3 4 5 4 4 3 2 1 0 1 1 0 0 0 0 0 0 0 0 0 0 0 0 0 0 0 0 0 0 0 0 0 0 0 0 0 0 0
0 0 0 1 2 2 3 3 3 3 2 1 0 0 1 1 0 0 0 0 0 0 0 0 0 0 0 0 0 0 0 0 0 0 0 0 0 0 0 0 0 0 0
0 0 1 1 2 2 2 2 2 2 1 0 0 0 0 0 0 0 0 0 0 0 0 0 0 0 0 0 0 0 0 0 0 0 0 0 0 0 0 0 0 0 0
0 0 1 1 2 3 3 2 1 1 1 0 0 0 0 0 0 0 0 0 0 0 0 0 0 0 0 0 0 0 0 0 0 0 0 0 0 0 0 0 0 0 0
0 0 1 1 1 3 4 3 2 2 1 0 0 0 0 0 0 0 0 0 0 0 0 0 0 0 0 0 0 0 0 0 0 0 0 0 0 0 0 0 0 0 0
1 0 0 0 0 1 2 2 1 1 1 0 0 0 0 0 0 0 0 0 0 0 0 0 0 0 0 0 0 0 0 0 0 0 0 0 0 0 0 0 0 0 0
1 0 0 0 0 0 1 1 0 0 0 0 0 0 0 0 0 0 0 0 0 0 0 0 0 0 0 0 0 0 0 0 0 0 0 0 0 0 0 0 0 0 0
1 0 0 0 0 0 0 0 0 0 0 0 0 0 0 0 0 0 0 0 0 0 0 0 0 0 0 0 0 0 0 0 0 0 0 0 0 0 0 0 0 0 0
0 0 0 0 0 0 0 0 0 0 0 0 0 0 0 0 0 0 0 0 0 0 0 0 0 0 0 0 0 0 0 0 0 0 0 0 0 0 0 0 0 0 0
0 0 0 0 0 0 0 0 0 0 0 0 0 0 0 0 0 0 0 0 0 0 0 0 0 0 0 0 0 0 0 0 0 0 0 0 0 0 0 0 0 0 0
0 0 0 0 0 0 0 0 0 0 0 0 0 0 0 0 0 0 0 0 0 0 0 0 0 0 0 0 0 0 0 0 0 0 0 0 0 0 0 0 0 0 0
0 0 0 0 0 0 0 0 0 0 0 0 0 0 0 0 0 0 0 1 1 1 1 0 0 0 0 0 0 0 0 0 0 0 0 0 0 0 0 0 0 0 0
0 0 0 0 0 0 0 0 0 0 0 0 0 0 0 0 0 0 0 1 2 2 1 0 0 0 0 0 0 0 0 0 0 0 0 0 0 0 0 0 0 0 0
0 0 0 0 0 0 0 0 0 0 0 0 0 0 0 0 0 0 0 1 1 1 1 0 0 0 0 0 0 0 0 0 0 0 0 0 0 0 0 0 0 0 0
0 0 0 0 0 0 0 0 0 0 0 0 0 0 0 0 0 0 0 0 0 0 0 0 0 0 0 0 0 0 0 0 0 0 0 0 0 0 0 0 0 0 0
0 0 0 0 0 0 0 0 0 0 0 0 0 0 0 0 0 0 0 0 0 0 0 0 0 0 0 0 0 0 0 0 0 0 0 0 0 0 0 0 0 0 0
Wind_Speed
4 3 3 2 2 1 1 1 1 1 1 2 2 2 2 2 2 2 3 3 3 3 4 3 3 3 2 2 2 2 2 2 3 2 1 1 2 2 2 2 2 3 3
4 3 3 2 2 2 1 1 0 1 1 2 2 2 2 2 3 3 4 4 3 3 4 3 4 3 3 2 2 3 2 2 2 3 2 2 3 3 3 3 3 3 3
5 4 3 3 2 2 1 1 0 1 1 2 1 2 2 2 2 3 3 3 4 4 3 3 3 3 4 3 3 3 3 3 2 2 3 2 2 2 2 3 3 2 3
4 4 3 2 3 2 2 1 1 1 1 2 1 2 2 3 3 4 4 4 3 3 3 3 3 3 3 4 3 3 3 2 2 2 2 2 2 2 2 2 2 2 2
3 3 3 2 2 2 1 1 1 1 1 1 2 2 2 2 3 5 5 5 4 4 3 3 2 2 3 3 3 3 3 2 2 2 2 2 2 2 2 2 2 2 3
3 3 3 3 3 2 2 1 1 0 1 2 2 2 3 3 4 4 4 5 4 4 3 3 3 2 1 2 3 4 3 3 3 3 2 2 3 2 2 2 1 2 2
3 3 3 3 3 2 2 1 1 0 1 2 2 2 1 1 3 4 5 4 5 4 4 3 4 3 3 2 3 4 4 6 7 4 4 4 3 3 2 3 2 2 3
4 3 3 3 2 2 2 2 1 0 1 2 2 2 1 1 2 4 6 4 4 4 4 3 3 2 3 3 4 3 3 3 4 5 4 4 4 3 3 3 4 3 3
4 3 3 2 2 1 1 1 1 1 2 2 2 2 2 2 3 4 4 4 4 4 3 3 3 2 1 3 3 4 4 4 4 3 4 5 5 6 4 2 2 2 3
3 3 2 1 2 2 1 1 1 2 2 3 2 3 3 2 3 4 4 4 4 4 3 2 2 2 2 3 3 4 4 4 4 4 3 5 5 6 8 6 4 3 2
3 2 2 1 1 2 2 1 2 2 3 3 3 4 3 2 3 5 5 3 4 4 4 3 1 1 2 4 4 3 5 5 4 4 4 3 3 3 4 5 4 3 3
3 3 2 1 2 1 1 2 2 3 3 4 3 3 2 2 3 5 6 6 5 4 4 3 2 3 5 5 4 6 7 6 4 4 3 3 3 3 3 3 4 4 4
3 3 2 2 2 2 3 3 3 3 3 3 2 2 2 2 3 4 5 6 6 4 4 6 7 8 8 6 7 8 6 4 4 4 3 3 3 3 2 2 3 4 4
4 3 3 3 3 2 2 3 2 2 2 2 2 2 2 1 0 1 2 3 4 4 4 6 8 10 9 7 6 5 5 4 4 3 3 3 2 2 3 2 3 3 3
4 3 3 3 3 2 2 2 2 1 1 2 2 3 3 2 2 2 2 3 3 3 4 4 4 4 4 4 4 4 4 4 4 4 3 3 3 3 3 3 3 3 3
4 4 3 3 3 3 3 2 3 5 5 5 6 4 3 3 4 4 4 5 5 4 3 4 5 5 5 4 3 3 3 3 3 3 3 3 3 3 3 3 3 3 4
4 3 3 3 3 3 3 2 2 3 5 7 8 7 8 8 8 8 7 7 7 3 3 5 5 5 5 5 4 4 3 3 3 3 3 3 3 3 3 3 3 4 4
4 4 4 4 3 3 3 3 3 2 2 3 6 10 10 10 10 10 6 4 5 4 5 6 5 5 5 4 4 4 3 3 3 3 3 3 3 3 3 4 4 4 4
4 4 3 3 3 3 3 3 3 3 2 2 2 4 8 9 9 9 4 4 6 5 5 5 5 4 3 3 3 3 3 3 3 3 2 3 3 3 4 4 4 5 5
4 6 5 4 4 4 3 3 3 2 2 2 2 2 2 3 4 4 4 5 6 6 5 4 4 4 3 3 4 3 3 3 3 3 3 3 3 3 4 5 4 4 3
5 5 7 6 5 4 3 3 2 3 2 2 2 2 2 4 4 4 3 3 4 4 4 4 3 4 3 3 3 3 4 3 2 3 3 3 3 3 4 4 4 4 4
4 4 4 5 4 3 2 3 3 3 3 3 3 2 3 4 4 3 2 3 3 3 3 3 3 3 3 3 3 3 3 3 3 3 3 4 4 4 4 4 4 4 4
6 5 3 4 3 2 3 4 4 3 3 3 3 3 2 3 3 2 3 3 3 3 3 3 3 3 3 3 3 2 3 4 3 4 4 5 5 5 4 5 6 5 5
6 5 4 3 3 3 3 3 3 3 3 3 2 2 2 2 3 3 3 2 3 2 3 3 3 5 6 5 3 3 3 4 4 4 5 5 6 6 5 5 6 6 5
5 4 4 4 3 3 2 3 3 3 3 3 2 2 2 2 3 3 3 3 3 3 5 4 3 3 5 6 5 4 3 3 3 4 5 6 7 7 6 7 6 6 6
5 5 4 3 2 2 2 3 3 3 3 3 2 3 3 3 3 3 3 3 3 4 4 5 6 6 6 5 5 4 3 3 4 4 4 5 6 6 6 6 8 7 7
Wind_Direction
149 138 122 130 138 137 138 102 46 12 333 331 334 331 317 324 334 319 307 309 313 312 317 323 315 311 316 311 303 290 282 269 272 283 271 252 252 256 223 231 213 203 213
149 136 146 157 154 152 124 104 59 332 322 331 329 327 328 349 338 329 327 338 334 330 328 328 326 328 333 325 316 298 285 271 261 275 274 258 257 250 235 239 236 222 208
151 146 147 160 151 138 138 143 137 318 317 307 318 325 331 345 334 337 338 337 340 334 330 333 336 335 327 325 311 300 288 286 274 263 267 266 265 261 253 255 255 244 232
152 147 147 156 144 145 157 167 194 261 282 296 321 325 338 346 347 354 347 335 337 330 327 334 333 331 327 321 311 308 301 293 283 268 262 264 263 262 254 251 270 270 262
155 162 158 160 155 155 156 185 202 249 288 325 328 324 323 340 7 4 338 331 336 328 327 328 323 328 320 307 312 317 315 307 294 279 276 282 276 271 262 255 256 269 269
174 178 162 166 169 165 174 183 186 279 342 328 328 332 340 358 15 357 336 325 322 320 317 314 303 280 314 301 289 285 276 273 278 274 270 267 272 276 282 282 284 290 281
181 175 167 177 175 176 182 136 108 13 333 315 315 326 355 355 329 332 332 308 305 308 309 305 307 332 343 344 314 280 270 253 242 247 255 259 258 258 259 264 262 263 265
184 180 171 175 175 159 138 126 134 278 283 289 295 304 306 308 301 317 322 304 294 294 292 290 292 305 340 339 321 315 302 288 253 230 239 250 257 258 254 260 261 258 260
181 175 176 178 155 153 145 150 179 250 273 273 267 278 285 272 262 287 305 302 291 292 295 306 310 315 6 343 317 314 312 301 289 259 248 250 253 259 257 274 268 259 265
177 173 166 160 159 158 144 180 226 251 256 268 270 271 265 259 244 261 281 290 305 310 300 300 318 318 315 324 311 309 304 306 315 309 283 259 249 247 238 230 240 251 269
169 164 151 143 160 170 169 204 242 259 266 270 267 264 258 254 233 249 253 269 300 310 312 315 319 285 296 297 296 287 284 292 294 282 273 259 248 236 224 218 219 225 247
171 167 154 175 230 190 172 224 243 255 264 265 256 260 253 222 226 236 235 239 260 283 294 308 318 291 299 291 280 272 283 296 285 278 270 263 259 248 236 225 215 221 226
172 166 170 198 225 200 211 228 235 242 254 262 254 248 243 210 215 227 236 251 255 257 281 297 301 290 290 279 261 264 270 266 268 272 275 266 250 242 238 236 235 233 237
172 172 188 208 214 208 227 232 238 244 260 287 293 296 296 277 254 205 246 257 262 258 269 286 287 281 274 267 271 259 244 244 251 263 274 276 273 257 242 237 237 235 241
179 192 213 220 217 211 226 250 262 270 249 262 299 312 323 328 335 326 308 306 321 342 324 294 285 284 279 261 251 244 235 230 232 240 254 261 261 262 258 247 237 238 248
188 206 223 226 213 216 215 230 245 244 240 240 244 254 282 267 270 287 294 296 300 312 304 284 286 287 286 285 275 264 247 236 234 233 241 252 252 251 258 258 250 247 253
198 212 233 238 230 229 229 234 239 251 250 253 250 245 240 258 272 274 283 299 293 274 257 266 269 274 279 280 276 273 270 257 240 236 238 248 255 258 258 257 256 253 252
207 218 239 245 245 247 247 251 243 236 241 241 236 231 238 249 260 268 282 305 282 253 249 259 263 262 266 278 285 285 284 276 256 250 248 248 253 259 264 263 258 255 259
216 226 234 254 252 248 250 262 261 251 253 249 223 216 227 241 256 263 247 248 269 274 269 265 267 270 267 272 277 279 281 284 282 274 263 264 266 266 267 270 268 262 257
218 235 240 252 254 255 254 263 273 278 275 277 273 244 208 229 253 249 219 235 255 264 271 280 285 284 282 283 282 282 281 278 285 289 287 274 264 268 276 279 278 276 268
223 215 214 238 251 258 266 277 282 283 284 286 286 276 234 246 263 271 260 246 259 274 282 289 292 292 291 287 289 293 296 292 286 291 297 294 287 280 273 270 272 272 271
247 234 213 233 247 255 269 273 274 275 277 284 283 275 248 257 273 281 292 296 294 290 294 296 302 310 315 316 321 324 318 311 305 301 300 303 302 296 287 282 281 280 272
255 253 236 235 241 240 250 264 274 276 279 275 287 290 270 276 298 312 315 313 311 311 313 313 315 315 316 322 326 324 323 320 322 330 326 313 306 299 294 288 289 293 289
256 257 259 251 246 249 258 267 273 277 284 289 295 303 308 304 311 316 318 318 326 328 322 318 321 322 325 330 331 347 2 347 336 328 320 307 304 302 302 299 294 291 287
263 260 263 266 266 273 281 283 287 293 302 305 303 305 306 304 308 314 320 334 342 329 322 318 310 317 329 348 1 3 9 352 338 332 319 304 299 301 304 304 302 299 298
263 268 272 273 274 287 291 297 303 307 310 316 315 309 311 314 314 324 338 346 339 332 331 329 337 351 359 4 8 7 359 338 327 320 310 300 299 301 307 302 303 303 301